Regional Weather Roundup
Issued by NWS

Home | Current Version | Previous Version | Text Only | Print | Product List | Glossary On
Versions: 1 2 3 4 5 6 7 8 9 10 11 12 13 14 15 16 17 18 19 20 21 22 23 24 25 26 27 28 29 30 31 32 33 34 35 36 37 38 39 40 41 42 43 44 45 46 47 48 49 50
000
ASUS45 KCYS 010810
RWRWY

WYOMING REGIONAL WEATHER ROUNDUP
NATIONAL WEATHER SERVICE CHEYENNE WY
200 AM MDT FRI AUG 01 2014

NOTE:  "FAIR" INDICATES FEW OR NO CLOUDS BELOW 12,000 FEET
WITH NO SIGNIFICANT WEATHER AND/OR OBSTRUCTIONS TO VISIBILITY.

WYZ001-010900-
YELLOWSTONE NATIONAL PARK

CITY           SKY/WX    TMP DP  RH WIND       PRES   REMARKS
LK YELLOWSTONE   N/A     43  40  89 NW3       30.43F
W YELLOWSTONE  NOT AVBL

$$
WYZ002>013-054>058-071-098>099-010900-
NORTHERN WYOMING

CITY           SKY/WX    TMP DP  RH WIND       PRES   REMARKS
JACKSON        MOCLDY    52  43  71 CALM      30.31S
CODY           PTCLDY    66  41  39 SW6       30.21R
GREYBULL       CLEAR     66  40  38 CALM      30.10F
WORLAND        PTCLDY    60  42  51 CALM      30.13S
SHERIDAN       CLEAR     57  44  62 S5        30.10F
BUFFALO        CLEAR     65  35  33 SW7       30.19F
GILLETTE       CLEAR     63  43  48 S12       30.15F
HULETT         FAIR      72  39  30 MISG      30.15
NEWCASTLE      FAIR      61  45  55 CALM      30.19

$$
WYZ014>020-022>026-101>103-010900-
CENTRAL WYOMING

CITY           SKY/WX    TMP DP  RH WIND       PRES   REMARKS
BIG PINEY      PTCLDY    50  44  80 CALM      30.34F
PINEDALE       CLOUDY    52  45  76 W3        30.35S
DUBOIS         FAIR      50  37  62 NW8       30.35F
LANDER         CLEAR     58  36  43 E6        30.22S
RIVERTON       CLEAR     60  42  51 NW10      30.22F
CASPER         CLEAR     53  38  56 CALM      30.22S
DOUGLAS        CLEAR     56  44  64 SE7       30.23S

$$
WYZ021-027>030-104>119-010900-
SOUTHERN WYOMING

CITY           SKY/WX    TMP DP  RH WIND       PRES   REMARKS
EVANSTON       PTCLDY    58  41  53 SE6       30.32F
KEMMERER       SUNNY     52  39  62 N14       30.34F
FORT BRIDGER   FAIR      59  45  59 W5        30.35F
ROCK SPRINGS   PTCLDY    63  34  33 N5        30.30F
DIXON          FAIR      61  40  46 E9        30.30F
RAWLINS        CLEAR     54  41  61 E7        30.32S
SARATOGA       FAIR      55  41  58 SE5       30.34S
LARAMIE        PTCLDY    48  44  86 SW5       30.36F
CHEYENNE       CLEAR     55  47  74 W5        30.31R
TORRINGTON     CLEAR     54  47  77 NE6       30.19F
PINE BLUFFS    FAIR      54  52  94 CALM      30.27R

$$



USA.gov is the U.S. government's official web portal to all federal, state and local government web resources and services.